This demonstration page uses our WeatherBlox Daily Observations layout. Learn more.

Left ArrowRight Arrow

44.8408, -93.29828

Hourly Observations for December 21, 2017

Temp ( °F °C ) Dew Point ( °F °C ) Humidity (%) Winds ( mph kmh ) Pressure ( in mb ) Visibility ( mi km ) Precip ( " mm )
12:53 am 00:53 Cloudy 20 -6.7 14 -10 78 78 E 9 15 30.11 1020 10 16 0.00 0.00
1:53 am 01:53 Cloudy 20 -6.7 14 -10 78 78 ENE 10 17 30.12 1020 10 16 0.00 0.00
2:53 am 02:53 Cloudy 20 -6.7 14 -10 78 78 ENE 10 17 30.13 1020 10 16 0.00 0.00
3:53 am 03:53 Cloudy 20 -6.7 14 -10 78 78 ENE 10 17 30.11 1020 10 16 0.00 0.00
4:53 am 04:53 Cloudy 20 -6.7 14 -10 78 78 ENE 9 15 30.13 1020 10 16 0.00 0.00
5:53 am 05:53 Cloudy 20 -6.7 14 -10 78 78 ENE 8 13 30.11 1020 10 16 0.00 0.00
6:53 am 06:53 Cloudy 21 -6.1 14 -10 74 74 NNE 9 15 30.12 1020 10 16 0.00 0.00
7:53 am 07:53 Cloudy 21 -6.1 14 -10 74 74 NE 9 15 30.12 1020 10 16 0.00 0.00
8:53 am 08:53 Cloudy 21 -6.1 14 -10 74 74 NNE 9 15 30.15 1021 10 16 0.00 0.00
9:53 am 09:53 Cloudy 21 -6.1 15 -9.4 78 78 NNE 9 15 30.17 1022 10 16 0.00 0.00
10:53 am 10:53 Cloudy 21 -6.1 15 -9.4 78 78 VRB 6 9 30.18 1022 10 16 0.00 0.00
11:53 am 11:53 Cloudy 22 -5.6 15 -9.4 75 75 N 7 11 30.16 1021 10 16 0.00 0.00
12:53 pm 12:53 Cloudy 23 -5 16 -8.9 74 74 NNE 12 19 30.13 1020 10 16 0.00 0.00
1:53 pm 13:53 Cloudy 23 -5 16 -8.9 74 74 N 10 17 30.12 1020 10 16 0.00 0.00
2:53 pm 14:53 Cloudy 23 -5 16 -8.9 74 74 N 13 20 30.12 1020 10 16 0.00 0.00
3:53 pm 15:53 Cloudy 23 -5 16 -8.9 74 74 NNE 14 22 30.12 1020 10 16 0.00 0.00
4:53 pm 16:53 Cloudy 23 -5 16 -8.9 74 74 N 8 13 30.14 1021 10 16 0.00 0.00
5:53 pm 17:53 Cloudy 23 -5 17 -8.3 78 78 N 7 11 30.14 1021 10 16 0.00 0.00
6:53 pm 18:53 Cloudy 23 -5 18 -7.8 81 81 NNE 9 15 30.15 1021 10 16 0.00 0.00
7:53 pm 19:53 Cloudy 22 -5.6 18 -7.8 85 85 N 10 17 30.15 1021 10 16 0.00 0.00
8:30 pm 20:30 Cloudy 23 -5 18 -7.8 81 81 N 10 17 30.15 1021 10 16 0.00 0.00
8:53 pm 20:53 Cloudy 23 -5 18 -7.8 81 81 N 10 17 30.14 1021 10 16 0.00 0.00
9:53 pm 21:53 Cloudy 22 -5.6 18 -7.8 85 85 N 8 13 30.15 1021 10 16 0.00 0.00
10:53 pm 22:53 Cloudy 22 -5.6 17 -8.3 82 82 N 10 17 30.15 1021 10 16 0.00 0.00
11:53 pm 23:53 Cloudy 21 -6.1 17 -8.3 85 85 N 10 17 30.14 1021 10 16 0.00 0.00

Powered by AerisWeather